{"data":{"norad_id":65134,"epoch":"2026-09-21T13:28:07.047552Z","epoch_age_seconds":73407,"freshness":"FRESH","line1":"1 65134U 25171C   26264.56119268  .00002075  00000+0  30105-3 0  9998","line2":"2 65134  51.8998 359.4643 0000348 105.2311 254.8690 14.79936269 62078","mean_motion":14.79936269,"eccentricity":3.48e-5,"inclination_deg":51.8998,"raan_deg":359.4643,"arg_perigee_deg":105.2311,"mean_anomaly_deg":254.869,"bstar":0.00030105,"rev_number":6207,"period_min":97.301487243975,"perigee_km":629.28144312267,"apogee_km":629.76917641943,"semimajor_km":7007.662309771,"source":"CELESTRAK","updated_at":"2026-09-22T09:00:30.149419Z"}}